FW0245 Weather Reports


time (UTC)temp
C
wind
direction
speed
KPH
gust
KPH
rain 1hr
cm
rain 24hr
cm
rain mn
cm
humidity
%
barometer
mb
20260508194538 17 268 0.0 12.9 0.00 0.05 0.05 55 1011.5
20260508194031 17 229 0.0 17.7 0.00 0.05 0.05 55 1011.5
20260508193530 17 246 3.2 17.7 0.00 0.05 0.05 53 1011.6
20260508193029 17 218 0.0 17.7 0.00 0.05 0.05 54 1011.7
20260508192532 17 242 3.2 20.9 0.00 0.05 0.05 53 1011.8
20260508192029 17 254 1.6 20.9 0.00 0.05 0.05 52 1011.8
20260508191535 17 184 1.6 20.9 0.00 0.05 0.05 54 1012.0
20260508191027 17 252 1.6 27.4 0.00 0.05 0.05 57 1012.1
20260508190527 17 360 8.0 27.4 0.00 0.05 0.05 56 1012.1
20260508190027 17 250 0.0 12.9 0.00 0.05 0.05 56 1012.1
20260508185526 17 240 0.0 19.3 0.00 0.05 0.05 56 1012.2
20260508185026 17 261 0.0 14.5 0.00 0.05 0.05 56 1012.3
20260508184527 17 247 1.6 14.5 0.00 0.05 0.05 58 1012.2
20260508184026 17 228 0.0 11.3 0.00 0.05 0.05 56 1012.2
20260508183526 17 242 0.0 17.7 0.00 0.05 0.05 57 1012.3
20260508183031 17 254 0.0 14.5 0.00 0.05 0.05 58 1012.3
20260508182525 17 235 0.0 9.7 0.00 0.05 0.05 56 1012.4
20260508182025 17 236 0.0 1.6 0.00 0.05 0.05 57 1012.3
20260508181524 17 173 0.0 1.6 0.00 0.05 0.05 59 1012.3
20260508181024 17 229 0.0 1.6 0.00 0.05 0.05 58 1012.5
20260508180522 18 236 0.0 3.2 0.00 0.05 0.05 59 1012.6
20260508180023 18 176 0.0 6.4 0.00 0.05 0.05 66 1012.7
20260508175521 18 234 0.0 16.1 0.00 0.05 0.05 60 1012.8
20260508175022 17 255 0.0 16.1 0.00 0.05 0.05 59 1013.0
20260508174520 17 238 0.0 11.3 0.00 0.05 0.05 58 1013.1
20260508174022 17 360 0.0 4.8 0.00 0.05 0.05 59 1013.3
20260508173518 17 240 0.0 11.3 0.00 0.05 0.05 57 1013.4
20260508173016 17 240 0.0 20.9 0.00 0.05 0.05 62 1013.6
20260508172517 17 251 9.7 20.9 0.00 0.05 0.05 60 1013.7
20260508172013 16 290 1.6 22.5 0.00 0.05 0.05 59 1013.9
20260508171515 16 240 1.6 22.5 0.00 0.05 0.05 58 1014.0
20260508171011 16 271 8.0 24.1 0.00 0.05 0.05 57 1014.1
20260508170510 16 256 0.0 24.1 0.00 0.05 0.05 58 1014.4
20260508170010 16 228 0.0 20.9 0.00 0.05 0.05 63 1014.4
20260508165508 16 248 3.2 20.9 0.00 0.05 0.05 59 1014.6
20260508165008 16 247 6.4 20.9 0.00 0.05 0.05 61 1014.9
20260508164507 15 317 3.2 20.9 0.00 0.05 0.05 61 1015.1
20260508164005 15 263 4.8 24.1 0.00 0.05 0.05 59 1015.0
20260508163505 15 239 6.4 24.1 0.00 0.05 0.05 61 1015.1
20260508163002 15 245 9.7 27.4 0.00 0.05 0.05 60 1015.1
20260508162502 14 262 9.7 27.4 0.00 0.05 0.05 60 1015.0
20260508162001 14 271 14.5 29.0 0.00 0.05 0.05 58 1014.9
20260508161602 14 276 14.5 29.0 0.00 0.05 0.05 58 1015.0
20260508161102 15 273 11.3 29.0 0.00 0.05 0.05 60 1015.0
20260508160558 14 269 16.1 25.7 0.00 0.05 0.05 60 1014.8
20260508160058 14 237 9.7 25.7 0.00 0.05 0.05 59 1014.8
20260508155559 14 308 12.9 25.7 0.00 0.05 0.05 61 1014.9
20260508155057 14 272 12.9 25.7 0.00 0.05 0.05 62 1015.1
20260508154612 14 261 4.8 24.1 0.00 0.05 0.05 62 1014.9
20260508154054 13 360 3.2 24.1 0.00 0.05 0.05 66 1014.9
20260508153554 13 267 0.0 14.5 0.00 0.05 0.05 63 1015.0
20260508153053 13 261 0.0 14.5 0.00 0.05 0.05 64 1015.0
20260508152552 13 257 0.0 6.4 0.00 0.05 0.05 65 1015.1
20260508152051 13 248 0.0 12.9 0.00 0.05 0.05 64 1015.1
20260508151553 13 242 1.6 12.9 0.00 0.05 0.05 64 1015.0
20260508151050 13 267 0.0 19.3 0.00 0.05 0.05 66 1015.1
20260508150549 12 232 0.0 19.3 0.00 0.05 0.05 68 1015.1
20260508150058 11 241 0.0 4.8 0.00 0.05 0.05 66 1015.1
20260508145546 11 254 0.0 11.3 0.00 0.05 0.05 66 1015.1
20260508145045 11 245 0.0 11.3 0.00 0.05 0.05 67 1015.1
20260508144543 11 235 0.0 9.7 0.00 0.05 0.05 67 1015.1
20260508144046 11 248 0.0 6.4 0.00 0.05 0.05 66 1015.1
20260508143542 11 219 0.0 3.2 0.00 0.05 0.05 68 1015.1
20260508143056 11 257 0.0 3.2 0.00 0.05 0.05 68 1015.1
20260508142540 11 246 0.0 1.6 0.00 0.05 0.05 69 1015.0
20260508142041 11 244 0.0 0.0 0.00 0.05 0.05 70 1015.1
20260508141538 11 236 0.0 1.6 0.00 0.05 0.05 69 1015.1
20260508141037 11 236 0.0 6.4 0.00 0.05 0.05 69 1015.1
20260508140535 11 236 0.0 6.4 0.00 0.05 0.05 68 1015.1
20260508140036 11 248 0.0 9.7 0.00 0.05 0.05 67 1015.1
20260508135533 11 273 0.0 8.0 0.00 0.05 0.05 67 1015.3
20260508135032 11 227 0.0 6.4 0.00 0.05 0.05 67 1015.4
20260508134530 11 257 0.0 6.4 0.00 0.05 0.05 69 1015.4
20260508134028 11 228 0.0 4.8 0.00 0.05 0.05 69 1015.2
20260508133528 10 259 0.0 6.4 0.00 0.05 0.05 69 1015.3
20260508133027 10 245 0.0 6.4 0.00 0.05 0.05 69 1015.3
20260508132526 10 244 0.0 6.4 0.00 0.05 0.05 70 1015.3
20260508132025 10 218 0.0 3.2 0.00 0.05 0.05 70 1015.4
20260508131524 10 254 0.0 0.0 0.00 0.05 0.05 73 1015.3
20260508131024 10 242 0.0 0.0 0.00 0.05 0.05 74 1015.3
20260508130523 10 238 0.0 0.0 0.00 0.05 0.05 74 1015.3
20260508130023 10 236 0.0 0.0 0.00 0.05 0.05 74 1015.4
20260508125522 10 232 0.0 0.0 0.00 0.05 0.05 74 1015.3
20260508125021 10 248 0.0 0.0 0.00 0.05 0.05 74 1015.3
20260508124522 9 244 0.0 0.0 0.00 0.05 0.05 73 1015.3
20260508124020 9 238 0.0 0.0 0.00 0.05 0.05 75 1015.3
20260508123520 9 239 0.0 0.0 0.00 0.05 0.05 75 1015.3
20260508123019 9 246 0.0 0.0 0.00 0.05 0.05 75 1015.3
20260508122518 9 237 0.0 0.0 0.00 0.05 0.05 76 1015.2
20260508122018 9 243 0.0 0.0 0.00 0.05 0.05 75 1015.3
20260508121519 9 244 0.0 0.0 0.00 0.05 0.05 76 1015.3
20260508121019 8 246 0.0 0.0 0.00 0.05 0.05 77 1015.3
20260508120518 8 247 0.0 0.0 0.00 0.05 0.05 76 1015.3
20260508120017 8 173 0.0 0.0 0.00 0.05 0.05 75 1015.1
20260508115516 8 242 0.0 0.0 0.00 0.05 0.05 75 1015.2
20260508115014 8 225 0.0 0.0 0.00 0.05 0.05 75 1015.0
20260508114513 8 240 0.0 0.0 0.00 0.05 0.05 75 1014.9
20260508114012 8 246 0.0 0.0 0.00 0.05 0.05 75 1015.0
20260508113514 8 234 0.0 0.0 0.00 0.05 0.05 75 1014.9
20260508113014 8 225 0.0 0.0 0.00 0.05 0.05 75 1014.9
20260508112511 8 249 0.0 0.0 0.00 0.05 0.05 75 1014.8
20260508112011 8 217 0.0 0.0 0.00 0.05 0.05 75 1014.9
20260508111512 8 241 0.0 0.0 0.00 0.05 0.05 75 1014.7
20260508111014 8 254 0.0 0.0 0.00 0.05 0.05 74 1014.7
20260508110510 8 251 0.0 0.0 0.00 0.05 0.05 74 1014.6
20260508110009 8 236 0.0 0.0 0.00 0.05 0.05 74 1014.7
20260508105509 8 227 0.0 0.0 0.00 0.05 0.05 73 1014.8
20260508105009 8 245 0.0 0.0 0.00 0.05 0.05 74 1014.7
20260508104509 8 256 0.0 0.0 0.00 0.05 0.05 73 1014.7
20260508104008 8 244 0.0 0.0 0.00 0.05 0.05 73 1014.7
20260508103506 7 200 0.0 0.0 0.00 0.05 0.05 73 1014.6
20260508103005 7 240 0.0 1.6 0.00 0.05 0.05 73 1014.7
20260508102504 7 233 0.0 1.6 0.00 0.05 0.05 73 1014.6
20260508102004 7 239 0.0 6.4 0.00 0.05 0.05 74 1014.7
20260508101505 7 241 0.0 4.8 0.00 0.05 0.05 74 1014.7
20260508101004 7 235 0.0 3.2 0.00 0.05 0.05 75 1014.7
20260508100502 7 244 0.0 3.2 0.00 0.05 0.05 76 1014.6
20260508100006 7 244 0.0 0.0 0.00 0.05 0.05 77 1014.7
20260508095603 7 238 0.0 0.0 0.00 0.05 0.05 77 1014.7
20260508095002 7 230 0.0 0.0 0.00 0.05 0.05 77 1014.5
20260508094502 7 243 0.0 0.0 0.00 0.05 0.05 77 1014.5
20260508094004 7 248 0.0 0.0 0.00 0.05 0.05 78 1014.6
20260508093501 7 207 0.0 0.0 0.00 0.05 0.05 78 1014.4
20260508093001 7 244 0.0 0.0 0.00 0.05 0.05 78 1014.6
20260508092601 7 227 0.0 0.0 0.00 0.05 0.05 78 1014.5
20260508092100 7 236 0.0 0.0 0.00 0.05 0.05 78 1014.5
20260508091609 7 236 0.0 0.0 0.00 0.05 0.05 78 1014.6
20260508091101 7 243 0.0 0.0 0.00 0.05 0.05 78 1014.7
20260508090600 7 243 0.0 0.0 0.00 0.05 0.05 79 1014.7
20260508090106 7 243 0.0 0.0 0.00 0.05 0.05 79 1014.6
20260508085558 7 244 0.0 0.0 0.00 0.05 0.05 79 1014.6
20260508085100 7 252 0.0 0.0 0.00 0.05 0.05 80 1014.7
20260508084614 6 250 0.0 0.0 0.00 0.05 0.05 80 1014.8
20260508084058 6 246 0.0 0.0 0.00 0.05 0.05 81 1014.7
20260508083558 6 246 0.0 0.0 0.00 0.05 0.05 82 1014.7
20260508083108 6 246 0.0 0.0 0.00 0.05 0.05 82 1014.7
20260508082556 6 246 0.0 0.0 0.00 0.05 0.05 82 1014.8
20260508082056 6 246 0.0 0.0 0.00 0.05 0.05 83 1014.8
20260508081556 6 245 0.0 3.2 0.00 0.05 0.05 83 1014.7
20260508081056 6 243 0.0 3.2 0.00 0.05 0.05 84 1014.8
20260508080555 6 247 0.0 0.0 0.00 0.05 0.05 84 1014.8
20260508080111 6 247 0.0 0.0 0.00 0.05 0.05 84 1014.8
20260508075554 6 247 0.0 0.0 0.00 0.05 0.05 84 1014.8
20260508075053 6 247 0.0 0.0 0.00 0.05 0.05 84 1014.8
20260508074604 6 247 0.0 0.0 0.00 0.05 0.05 85 1014.8
20260508074055 6 247 0.0 0.0 0.00 0.05 0.05 85 1014.9
20260508073557 6 247 0.0 0.0 0.00 0.05 0.05 85 1014.9
20260508073058 6 247 0.0 0.0 0.00 0.05 0.05 85 1014.9
20260508072555 6 247 0.0 0.0 0.00 0.05 0.05 84 1014.9
20260508072052 6 247 0.0 0.0 0.00 0.05 0.05 84 1014.9
20260508071551 6 247 0.0 0.0 0.00 0.05 0.05 84 1014.9
20260508071051 6 247 0.0 0.0 0.00 0.05 0.05 84 1014.9
20260508070550 7 247 0.0 0.0 0.00 0.05 0.05 84 1015.0
20260508070052 7 247 0.0 0.0 0.00 0.05 0.05 83 1015.0
20260508065549 7 247 0.0 0.0 0.00 0.05 0.05 83 1015.0
20260508065046 7 247 0.0 0.0 0.00 0.05 0.05 83 1015.1
20260508064555 7 247 0.0 0.0 0.00 0.05 0.05 83 1015.2
20260508064045 7 247 0.0 0.0 0.00 0.05 0.05 83 1015.2
20260508063545 7 247 0.0 0.0 0.00 0.05 0.05 83 1015.1
20260508063044 7 247 0.0 0.0 0.00 0.05 0.05 83 1015.1
20260508062543 7 247 0.0 0.0 0.03 0.05 0.05 83 1015.0
20260508062042 7 247 0.0 0.0 0.03 0.05 0.05 82 1015.2
20260508061543 7 247 0.0 0.0 0.05 0.05 0.05 82 1015.2
20260508061045 8 247 0.0 0.0 0.05 0.05 0.05 82 1015.2
20260508060541 8 247 0.0 0.0 0.05 0.05 0.05 82 1015.2
20260508060040 8 247 0.0 0.0 0.05 0.05 0.05 82 1015.2
20260508055540 8 247 0.0 0.0 0.05 0.05 0.05 82 1015.2
20260508055039 8 247 0.0 0.0 0.05 0.05 0.05 81 1015.5
20260508054546 8 256 0.0 1.6 0.05 0.05 0.05 81 1015.7
20260508054041 8 256 0.0 1.6 0.05 0.05 0.05 80 1016.0
20260508053537 8 288 0.0 4.8 0.05 0.05 0.05 79 1016.1
20260508053041 8 232 0.0 4.8 0.03 0.03 0.03 79 1016.2
20260508052536 8 290 0.0 1.6 0.03 0.03 0.03 78 1016.4
20260508052036 8 291 0.0 12.9 0.03 0.03 0.03 78 1016.7
20260508051539 8 300 0.0 25.7 0.00 0.00 0.00 78 1016.7
20260508051035 8 344 3.2 25.7 0.00 0.00 0.00 77 1016.7
20260508050534 8 348 0.0 1.6 0.00 0.00 0.00 77 1016.5
20260508050043 8 327 0.0 0.0 0.00 0.00 0.00 77 1016.1
20260508045531 8 323 0.0 0.0 0.00 0.00 0.00 77 1015.8
20260508045031 8 323 0.0 0.0 0.00 0.00 0.00 75 1015.5
20260508044533 8 323 0.0 0.0 0.00 0.00 0.00 75 1015.4
20260508044031 8 323 0.0 0.0 0.00 0.00 0.00 75 1015.3
20260508043529 8 323 0.0 0.0 0.00 0.00 0.00 75 1015.4
20260508043029 8 323 0.0 0.0 0.00 0.00 0.00 75 1015.4
20260508042528 8 323 0.0 0.0 0.00 0.00 0.00 75 1015.3
20260508042027 8 323 0.0 0.0 0.00 0.00 0.00 75 1015.4
20260508041527 8 323 0.0 0.0 0.00 0.00 0.00 75 1015.6
20260508041026 9 323 0.0 0.0 0.00 0.00 0.00 75 1015.6
20260508040528 9 323 0.0 0.0 0.00 0.00 0.00 75 1015.6
20260508040039 9 323 0.0 0.0 0.00 0.00 0.00 75 1015.7
20260508035523 9 323 0.0 0.0 0.00 0.00 0.00 74 1015.7
20260508035028 9 323 0.0 0.0 0.00 0.00 0.00 74 1015.7
20260508034536 9 323 0.0 0.0 0.00 0.00 0.00 73 1015.6
20260508034024 9 323 0.0 0.0 0.00 0.00 0.00 73 1015.6
20260508033523 9 323 0.0 0.0 0.00 0.00 0.00 71 1015.5
20260508033022 10 323 0.0 0.0 0.00 0.00 0.00 70 1015.6
20260508032523 10 323 0.0 0.0 0.00 0.00 0.00 69 1015.7
20260508032026 10 323 0.0 0.0 0.00 0.00 0.00 68 1015.5
20260508031523 10 323 0.0 0.0 0.00 0.00 0.00 68 1015.6
20260508031025 10 323 0.0 0.0 0.00 0.00 0.00 67 1015.7
20260508030522 10 323 0.0 0.0 0.00 0.00 0.00 65 1015.6
20260508030023 10 323 0.0 0.0 0.00 0.00 0.00 65 1015.6
20260508025521 10 323 0.0 0.0 0.00 0.00 0.00 63 1015.5
20260508025021 10 323 0.0 1.6 0.00 0.00 0.00 64 1015.7
20260508024525 10 263 0.0 1.6 0.00 0.00 0.00 67 1015.8
20260508024021 10 277 0.0 0.0 0.00 0.00 0.00 63 1015.7
20260508023521 10 277 0.0 0.0 0.00 0.00 0.00 64 1015.9
20260508023020 10 277 0.0 0.0 0.00 0.00 0.00 63 1015.9
20260508022520 10 277 0.0 0.0 0.00 0.00 0.00 64 1015.9
20260508022020 10 277 0.0 0.0 0.00 0.00 0.00 62 1015.7
20260508021520 10 277 0.0 0.0 0.00 0.00 0.00 60 1015.6
20260508021019 10 277 0.0 0.0 0.00 0.00 0.00 61 1015.6
20260508020521 10 269 0.0 0.0 0.00 0.00 0.00 60 1015.7
20260508020019 10 262 0.0 0.0 0.00 0.00 0.00 62 1015.6
20260508015519 10 262 0.0 0.0 0.00 0.00 0.00 58 1015.6
20260508015019 10 262 0.0 0.0 0.00 0.00 0.00 58 1015.6
20260508014519 11 262 0.0 0.0 0.00 0.00 0.00 57 1015.5
20260508014019 11 262 0.0 0.0 0.00 0.00 0.00 57 1015.4
20260508013518 11 261 0.0 0.0 0.00 0.00 0.00 56 1015.6
20260508013018 11 261 0.0 0.0 0.00 0.00 0.00 55 1015.5
20260508012518 11 261 0.0 0.0 0.00 0.00 0.00 56 1015.5
20260508012018 11 261 0.0 1.6 0.00 0.00 0.00 57 1015.6
20260508011519 11 259 0.0 3.2 0.00 0.00 0.00 55 1015.7
20260508011018 11 253 0.0 3.2 0.00 0.00 0.00 53 1015.5
20260508010518 11 259 0.0 1.6 0.00 0.00 0.00 53 1015.4
20260508010020 11 245 0.0 0.0 0.00 0.00 0.00 53 1015.4
20260508005517 11 263 0.0 3.2 0.00 0.00 0.00 52 1015.4
20260508005020 11 278 0.0 12.9 0.00 0.00 0.00 51 1015.5
20260508004520 11 298 1.6 12.9 0.00 0.00 0.00 49 1015.5
20260508004017 11 300 0.0 0.0 0.00 0.00 0.00 51 1015.5
20260508003521 11 279 0.0 0.0 0.00 0.00 0.00 49 1015.4
20260508003016 11 308 0.0 0.0 0.00 0.00 0.00 50 1015.4
20260508002516 11 289 0.0 0.0 0.00 0.00 0.00 52 1015.4
20260508002016 11 262 0.0 4.8 0.00 0.00 0.00 51 1015.4
20260508001516 11 261 0.0 4.8 0.00 0.00 0.00 53 1015.4
20260508001016 12 275 0.0 0.0 0.00 0.00 0.00 51 1015.4
20260508000519 12 267 0.0 0.0 0.00 0.00 0.00 50 1015.2
20260508000015 12 256 0.0 0.0 0.00 0.00 0.00 50 1015.2
20260507235517 12 252 0.0 0.0 0.00 0.00 0.00 50 1015.2
20260507235015 12 263 0.0 1.6 0.00 0.00 0.00 47 1015.0
20260507234527 12 271 0.0 0.0 0.00 0.00 0.00 49 1015.0
20260507234015 12 274 0.0 0.0 0.00 0.00 0.00 50 1014.9
20260507233515 12 292 0.0 0.0 0.00 0.00 0.00 47 1014.9
20260507233018 12 267 0.0 0.0 0.00 0.00 0.00 45 1014.8
20260507232515 12 254 0.0 0.0 0.00 0.00 0.00 45 1014.8
20260507232013 12 267 0.0 1.6 0.00 0.00 0.00 48 1014.9
20260507231513 12 287 0.0 1.6 0.00 0.00 0.00 46 1014.8
20260507231013 12 316 0.0 1.6 0.00 0.00 0.00 45 1015.0
20260507230513 12 266 0.0 14.5 0.00 0.00 0.00 45 1015.0
20260507230016 12 284 1.6 14.5 0.00 0.00 0.00 45 1015.0
20260507225512 12 298 0.0 0.0 0.00 0.00 0.00 43 1015.1
20260507225012 13 242 0.0 0.0 0.00 0.00 0.00 46 1015.0
20260507224513 13 262 0.0 1.6 0.00 0.00 0.00 45 1015.0
20260507224012 13 299 0.0 4.8 0.00 0.00 0.00 43 1015.1
20260507223513 13 277 0.0 4.8 0.00 0.00 0.00 44 1015.1
20260507223012 13 11 0.0 0.0 0.00 0.00 0.00 44 1015.1
20260507222511 13 344 0.0 1.6 0.00 0.00 0.00 44 1015.1
20260507222011 13 330 0.0 1.6 0.00 0.00 0.00 44 1015.3
20260507221511 13 337 0.0 1.6 0.00 0.00 0.00 46 1015.3
20260507221011 13 304 0.0 3.2 0.00 0.00 0.00 44 1015.3
20260507220511 13 360 0.0 3.2 0.00 0.00 0.00 43 1015.4
20260507220010 13 293 0.0 3.2 0.00 0.00 0.00 44 1015.3
20260507215510 13 291 0.0 16.1 0.00 0.00 0.00 45 1015.4
20260507215011 13 292 0.0 16.1 0.00 0.00 0.00 42 1015.3
20260507214509 13 316 0.0 22.5 0.00 0.00 0.00 43 1015.2
20260507214010 14 284 3.2 22.5 0.00 0.00 0.00 43 1015.1
20260507213510 14 323 1.6 17.7 0.00 0.00 0.00 41 1015.1
20260507213016 13 331 3.2 20.9 0.00 0.00 0.00 42 1015.2
20260507212508 14 338 3.2 20.9 0.00 0.00 0.00 40 1015.1
20260507212008 13 309 0.0 24.1 0.00 0.00 0.00 46 1015.1
20260507211508 14 281 3.2 20.9 0.00 0.00 0.00 44 1015.1
20260507211008 13 329 0.0 24.1 0.00 0.00 0.00 44 1015.1
20260507210507 13 319 9.7 24.1 0.00 0.00 0.00 43 1015.2
20260507210007 14 348 9.7 25.7 0.00 0.00 0.00 44 1015.1
20260507205507 13 336 9.7 25.7 0.00 0.00 0.00 45 1015.1
20260507205007 13 321 1.6 22.5 0.00 0.00 0.00 45 1015.0
20260507204507 13 337 14.5 22.5 0.00 0.00 0.00 46 1015.1
20260507204007 13 335 4.8 20.9 0.00 0.00 0.00 44 1015.0
20260507203509 13 319 6.4 20.9 0.00 0.00 0.00 46 1015.0
20260507203005 13 333 0.0 25.7 0.00 0.00 0.00 45 1015.1
20260507202504 13 355 4.8 25.7 0.00 0.00 0.00 46 1015.1
20260507202106 13 318 14.5 25.7 0.00 0.00 0.00 45 1015.1
20260507201506 13 338 0.0 25.7 0.00 0.00 0.00 47 1015.2
20260507201003 13 346 6.4 24.1 0.00 0.00 0.00 43 1015.0
20260507200503 13 331 6.4 22.5 0.00 0.00 0.00 45 1015.3
20260507200003 13 325 16.1 22.5 0.00 0.00 0.00 45 1015.4
20260507195502 14 339 0.0 19.3 0.00 0.00 0.00 44 1015.3
20260507195004 14 9 4.8 19.3 0.00 0.00 0.00 43 1015.3